LRFT Weather Reports


Display with metric or nautical units.
time (UTC)temp
F
wind
direction
speed
MPH
gust
MPH
rain 1hr
in
rain 24hr
in
rain mn
in
humidity
%
barometer
mb
20260902044857 61 60 6.0 0.0 0.00 0.00 0.00 88 1018.0
20260902043357 61 60 6.0 0.0 0.00 0.00 0.00 88 1018.0
20260902041859 61 60 6.0 0.0 0.00 0.00 0.00 88 1018.0
20260902040404 61 60 6.0 0.0 0.00 0.00 0.00 88 1018.0
20260902034857 61 3.0 0.0 0.00 0.00 0.00 88 1018.0
20260902033358 61 3.0 0.0 0.00 0.00 0.00 88 1018.0
20260902031856 61 3.0 0.0 0.00 0.00 0.00 88 1018.0
20260902030359 61 3.0 0.0 0.00 0.00 0.00 88 1018.0
20260902024857 63 3.0 0.0 0.00 0.00 0.00 83 1018.0
20260902023356 63 3.0 0.0 0.00 0.00 0.00 83 1018.0
20260902021901 63 3.0 0.0 0.00 0.00 0.00 83 1018.0
20260902020400 63 3.0 0.0 0.00 0.00 0.00 83 1018.0
20260902014859 64 3.0 0.0 0.00 0.00 0.00 78 1018.0
20260902013359 64 3.0 0.0 0.00 0.00 0.00 78 1018.0
20260902011856 64 3.0 0.0 0.00 0.00 0.00 78 1018.0
20260902010359 64 3.0 0.0 0.00 0.00 0.00 78 1018.0
20260902004859 64 3.0 0.0 0.00 0.00 0.00 78 1018.0
20260902003359 64 3.0 0.0 0.00 0.00 0.00 78 1017.0
20260902001857 64 3.0 0.0 0.00 0.00 0.00 78 1017.0
20260902000407 64 3.0 0.0 0.00 0.00 0.00 78 1017.0
20260901234901 0 0.0 0.0 0.00 0.00 0.00
20260901233400 0 0.0 0.0 0.00 0.00 0.00
20260901231900 0 0.0 0.0 0.00 0.00 0.00
20260901230416 0 0.0 0.0 0.00 0.00 0.00
20260901224900 66 3.0 0.0 0.00 0.00 0.00 88 1017.0
20260901223400 66 3.0 0.0 0.00 0.00 0.00 88 1017.0
20260901221859 66 3.0 0.0 0.00 0.00 0.00 88 1017.0
20260901220359 66 3.0 0.0 0.00 0.00 0.00 88 1017.0
20260901214901 66 3.0 0.0 0.00 0.00 0.00 88 1017.0
20260901213513 0 0.0 0.0 0.00 0.00 0.00
20260901211900 68 130 6.0 0.0 0.00 0.00 0.00 83 1016.0
20260901210429 68 130 6.0 0.0 0.00 0.00 0.00 83 1016.0
20260901204901 70 120 9.0 0.0 0.00 0.00 0.00 73 1016.0
20260901203431 70 120 9.0 0.0 0.00 0.00 0.00 73 1016.0
20260901201900 70 120 9.0 0.0 0.00 0.00 0.00 73 1016.0
20260901200359 70 120 9.0 0.0 0.00 0.00 0.00 73 1016.0
20260901195022 0 0.0 0.0 0.00 0.00 0.00
20260901193422 73 120 11.0 0.0 0.00 0.00 0.00 61 1016.0
20260901191923 73 120 11.0 0.0 0.00 0.00 0.00 61 1016.0
20260901190414 73 120 11.0 0.0 0.00 0.00 0.00 61 1016.0
20260901184900 77 120 11.0 0.0 0.00 0.00 0.00 51 1016.0
20260901183359 77 120 11.0 0.0 0.00 0.00 0.00 51 1016.0
20260901181900 77 120 11.0 0.0 0.00 0.00 0.00 51 1016.0
20260901180401 77 120 11.0 0.0 0.00 0.00 0.00 51 1016.0
20260901174859 81 120 11.0 0.0 0.00 0.00 0.00 42 1015.0
20260901173400 81 120 11.0 0.0 0.00 0.00 0.00 42 1015.0
20260901171900 81 120 11.0 0.0 0.00 0.00 0.00 42 1015.0
20260901170400 81 120 11.0 0.0 0.00 0.00 0.00 42 1015.0
20260901164900 88 3.0 0.0 0.00 0.00 0.00 25 1015.0
20260901163407 88 3.0 0.0 0.00 0.00 0.00 25 1015.0
20260901161859 88 3.0 0.0 0.00 0.00 0.00 25 1015.0
20260901160404 88 3.0 0.0 0.00 0.00 0.00 25 1015.0
20260901154900 90 160 9.0 0.0 0.00 0.00 0.00 24 1015.0
20260901153400 90 160 9.0 0.0 0.00 0.00 0.00 24 1015.0
20260901151859 90 160 9.0 0.0 0.00 0.00 0.00 24 1015.0
20260901150359 90 160 9.0 0.0 0.00 0.00 0.00 24 1015.0
20260901144938 88 110 9.0 0.0 0.00 0.00 0.00 25 1015.0
20260901143400 88 110 9.0 0.0 0.00 0.00 0.00 25 1015.0
20260901141923 0 0.0 0.0 0.00 0.00 0.00
20260901140523 0 0.0 0.0 0.00 0.00 0.00
20260901134859 88 120 9.0 0.0 0.00 0.00 0.00 25 1015.0
20260901133400 88 120 9.0 0.0 0.00 0.00 0.00 25 1015.0
20260901131909 88 120 9.0 0.0 0.00 0.00 0.00 25 1015.0
20260901130359 88 120 9.0 0.0 0.00 0.00 0.00 25 1015.0
20260901124906 88 120 11.0 0.0 0.00 0.00 0.00 27 1016.0
20260901123401 88 120 11.0 0.0 0.00 0.00 0.00 27 1016.0
20260901121859 88 120 11.0 0.0 0.00 0.00 0.00 27 1016.0
20260901120359 88 120 11.0 0.0 0.00 0.00 0.00 27 1016.0
20260901114900 86 140 11.0 0.0 0.00 0.00 0.00 29 1016.0
20260901113400 86 140 11.0 0.0 0.00 0.00 0.00 29 1016.0
20260901111900 86 140 11.0 0.0 0.00 0.00 0.00 29 1016.0
20260901110359 86 140 11.0 0.0 0.00 0.00 0.00 29 1016.0
20260901104900 82 150 9.0 0.0 0.00 0.00 0.00 37 1017.0
20260901103400 82 150 9.0 0.0 0.00 0.00 0.00 37 1017.0
20260901102004 0 0.0 0.0 0.00 0.00 0.00
20260901100401 82 150 9.0 0.0 0.00 0.00 0.00 37 1017.0
20260901094900 81 230 9.0 0.0 0.00 0.00 0.00 37 1017.0
20260901093359 81 230 9.0 0.0 0.00 0.00 0.00 37 1017.0
20260901091859 81 230 9.0 0.0 0.00 0.00 0.00 37 1017.0
20260901090400 81 230 9.0 0.0 0.00 0.00 0.00 37 1017.0
20260901084900 79 150 9.0 0.0 0.00 0.00 0.00 48 1017.0
20260901083409 79 150 9.0 0.0 0.00 0.00 0.00 48 1017.0
20260901081859 79 150 9.0 0.0 0.00 0.00 0.00 48 1017.0
20260901080401 79 150 9.0 0.0 0.00 0.00 0.00 48 1017.0
20260901074906 72 140 7.0 0.0 0.00 0.00 0.00 73 1017.0
20260901073400 72 140 7.0 0.0 0.00 0.00 0.00 73 1017.0
20260901071856 72 140 7.0 0.0 0.00 0.00 0.00 73 1017.0
20260901070359 72 140 7.0 0.0 0.00 0.00 0.00 73 1017.0
20260901064859 66 120 7.0 0.0 0.00 0.00 0.00 83 1017.0
20260901063400 66 120 7.0 0.0 0.00 0.00 0.00 83 1017.0
20260901061900 66 120 7.0 0.0 0.00 0.00 0.00 83 1017.0
20260901060400 66 120 7.0 0.0 0.00 0.00 0.00 83 1017.0
20260901054900 57 90 7.0 0.0 0.00 0.00 0.00 100 1017.0
20260901053359 57 90 7.0 0.0 0.00 0.00 0.00 100 1017.0
20260901051900 57 90 7.0 0.0 0.00 0.00 0.00 100 1017.0
20260901050400 57 90 7.0 0.0 0.00 0.00 0.00 100 1017.0